Powrót do katalogu

SL-16 DEB

AktywnyLEO
NORAD 16391·DEBRIS·🇷🇺 Russia

Wystrzelony Oct 22, 1985 z Baikonur Cosmodrome

Loading…

Następne Przeloty (najbliższe 24 godziny)

TLE

ŚwieżeSource: Space-Track

Epoka: Sep 14, 2026, 13:53 UTC

1 16391U 85097E   26257.57856778  .00000080  00000-0  10802-3 0  9996
2 16391  70.9951 317.5959 0186908  72.9548 357.8364 13.77227848 54126

Śledź SL-16 DEB w czasie rzeczywistym z AllMySat

Download on the App Store